Redmond, OR

7:10 PM PST on November 11, 2019 (GMT -0800)
Roberts Field Airport

Weather History for KRDM - September, 2019

Change the Weather History Date:

Thursday, September 26, 2019

  Actual Average Record
Temperature  
Mean Temperature 60 °F 54 °F  
Max Temperature 78 °F 73 °F 95 °F (1963)
Min Temperature 41 °F 35 °F 24 °F (2000)
Degree Days  
Heating Degree Days 5 11  
Month to date heating degree days 136 203  
Since 1 July heating degree days 183 352  
Cooling Degree Days 0 0  
Month to date cooling degree days 37 14  
Year to date cooling degree days 293 220  
Growing Degree Days 10 (Base 50)    
Moisture  
Dew Point 41 °F    
Average Humidity 59    
Maximum Humidity 92    
Minimum Humidity 26    
Precipitation  
Precipitation 0.00 in 0.01 in 0.64 in (1981)
Month to date precipitation 1.31 0.35  
Year to date precipitation 8.77 6.08  
Sea Level Pressure  
Sea Level Pressure 29.96 in    
Wind  
Wind Speed 8 mph (NW)    
Max Wind Speed 24 mph    
Max Gust Speed 29 mph    
Visibility 10 miles    
Events      
T = Trace of Precipitation, MM = Missing Value Source: NWS Daily Summary

Daily Weather History Graph

Daily Weather History Graph

Search for Another Location

Airport or City:

Astronomy

Sep. 26, 2019 Rise Set
Actual Time 6:56 AM PDT 6:54 PM PDT
Civil Twilight 6:27 AM PDT 7:23 PM PDT
Nautical Twilight 5:53 AM PDT 7:57 PM PDT
Astronomical Twilight 5:19 AM PDT 8:31 PM PDT
Moon 4:00 AM PDT (9/26) 6:18 PM PDT (9/26)
Length of Visible Light 12h 56m
Length of Day
11h 58m
Waning Crescent, 6% of the Moon is Illuminated
Sep 26
Waning Crescent
Sep 28
New
Oct 5
First Quarter
Oct 13
Full
Oct 21
Last Quarter

Hourly Weather History & Observations

Time (PDT) Temp. Windchill Dew Point Humidity Pressure Visibility Wind Dir Wind Speed Gust Speed Precip Events Conditions
12:56 AM 48.9 °F - 28.9 °F 46% 30.09 in 10.0 mi South 3.5 mph - N/A   Clear
1:56 AM 46.9 °F - 28.9 °F 50% 30.07 in 10.0 mi Calm Calm - N/A   Clear
2:56 AM 44.1 °F 41.5 °F 30.0 °F 58% 30.04 in 10.0 mi SE 4.6 mph - N/A   Clear
3:56 AM 45.0 °F 43.5 °F 28.9 °F 53% 30.02 in 10.0 mi East 3.5 mph - N/A   Clear
4:56 AM 44.1 °F 40.1 °F 30.9 °F 60% 30.01 in 10.0 mi SE 6.9 mph - N/A   Clear
5:56 AM 43.0 °F - 33.1 °F 68% 30.01 in 10.0 mi Calm Calm - N/A   Clear
6:56 AM 44.1 °F 42.5 °F 34.0 °F 68% 30.00 in 10.0 mi ENE 3.5 mph - N/A   Clear
7:56 AM 50.0 °F - 35.1 °F 57% 30.01 in 10.0 mi Variable 3.5 mph - N/A   Clear
8:56 AM 57.0 °F - 36.0 °F 45% 30.00 in 10.0 mi SSE 5.8 mph - N/A   Clear
9:56 AM 64.0 °F - 37.9 °F 38% 29.98 in 9.0 mi SSE 6.9 mph - N/A   Smoke
10:56 AM 70.0 °F - 42.1 °F 36% 29.95 in 10.0 mi NNE 5.8 mph - N/A   Smoke
11:56 AM 73.9 °F - 42.1 °F 32% 29.93 in 10.0 mi West 11.5 mph 19.6 mph N/A   Smoke
12:56 PM 77.0 °F - 39.0 °F 25% 29.91 in 10.0 mi WNW 15.0 mph 21.9 mph N/A   Clear
1:56 PM 77.0 °F - 46.0 °F 33% 29.88 in 10.0 mi WNW 15.0 mph 21.9 mph N/A   Clear
2:56 PM 75.0 °F - 48.0 °F 38% 29.87 in 10.0 mi WNW 20.7 mph 27.6 mph N/A   Mostly Cloudy
3:56 PM 72.0 °F - 48.9 °F 44% 29.88 in 10.0 mi NW 15.0 mph - N/A   Mostly Cloudy
4:56 PM 69.1 °F - 50.0 °F 51% 29.89 in 10.0 mi NW 20.7 mph 26.5 mph N/A   Overcast
5:56 PM 66.0 °F - 51.1 °F 59% 29.91 in 10.0 mi WNW 19.6 mph 26.5 mph N/A   Overcast
6:56 PM 64.0 °F - 51.1 °F 63% 29.91 in 10.0 mi WNW 10.4 mph - N/A   Overcast
7:56 PM 62.1 °F - 50.0 °F 65% 29.92 in 10.0 mi NW 12.7 mph - N/A   Scattered Clouds
8:56 PM 60.1 °F - 50.0 °F 69% 29.92 in 10.0 mi WNW 8.1 mph - N/A   Clear
9:56 PM 51.1 °F - 46.0 °F 83% 29.93 in 10.0 mi Calm Calm - N/A   Clear
10:56 PM 52.0 °F - 46.0 °F 80% 29.93 in 10.0 mi NE 4.6 mph - N/A   Clear
11:56 PM 45.0 °F - 42.1 °F 90% 29.94 in 10.0 mi Calm Calm - N/A   Clear